Weather History for KDKR - April, 2013

Change the Weather History Date:

Monday, April 1, 2013

  Actual Average (KLFK) Record (KLFK)
Temperature  
Mean Temperature 70 °F 63 °F  
Max Temperature 82 °F 75 °F 93 °F (1936)
Min Temperature 57 °F 51 °F 33 °F (1931)
Degree Days  
Heating Degree Days 0 4  
Month to date heating degree days 4  
Since 1 July heating degree days 1848  
Cooling Degree Days 4 2  
Month to date cooling degree days 2  
Year to date cooling degree days 62  
Growing Degree Days 20 (Base 50)    
Moisture  
Dew Point 59 °F    
Average Humidity 74    
Maximum Humidity 100    
Minimum Humidity 39    
Precipitation  
Precipitation 0.00 in 0.10 in 4.20 in (1916)
Month to date precipitation 0.10  
Year to date precipitation 11.93  
Snow  
Snow 0.00 in - - ()
Month to date snowfall  
Since 1 July snowfall  
Snow Depth -    
Sea Level Pressure  
Sea Level Pressure 30.04 in    
Wind  
Wind Speed 1 mph (ESE)    
Max Wind Speed 9 mph    
Max Gust Speed -    
Visibility 9 miles    
Events      
T = Trace of Precipitation, MM = Missing Value Source: NWS Daily Summary

Daily Weather History Graph

Daily Weather History Graph

Search for Another Location

Airport or City:

Trip Planner

Search our weather history database for the weather conditions in past years. The results will help you decide how hot, cold, wet, or windy it might be!

Date:

Astronomy

Apr. 01, 2013 Rise Set
Actual Time 7:09 AM CDT 7:41 PM CDT
Civil Twilight 6:45 AM CDT 8:05 PM CDT
Nautical Twilight 6:16 AM CDT 8:34 PM CDT
Astronomical Twilight 5:47 AM CDT 9:03 PM CDT
Moon 12:34 AM CDT (4/1) 11:14 AM CDT (4/1)
Length of Visible Light 13h 20m
Length of Day
12h 31m
Waning Gibbous, 67% of the Moon is Illuminated
Apr 1
Waning Gibbous
Apr 2
Last Quarter
Apr 10
New
Apr 18
First Quarter
Apr 25
Full

Hourly Weather History & Observations

Time (CDT) Temp. Heat Index Dew Point Humidity Pressure Visibility Wind Dir Wind Speed Gust Speed Precip Events Conditions
12:15 AM 64.4 °F - 60.8 °F 88% 30.01 in 10.0 mi Calm Calm - N/A   Mostly Cloudy
12:35 AM 62.6 °F - 60.8 °F 94% 30.02 in 10.0 mi Calm Calm - N/A   Mostly Cloudy
12:55 AM 62.6 °F - 60.8 °F 94% 30.02 in 10.0 mi South 3.5 mph - N/A   Overcast
1:15 AM 62.6 °F - 60.8 °F 94% 30.02 in 10.0 mi Calm Calm - N/A   Overcast
1:35 AM 62.6 °F - 60.8 °F 94% 30.01 in 10.0 mi Calm Calm - N/A   Mostly Cloudy
1:55 AM 62.6 °F - 60.8 °F 94% 30.01 in 10.0 mi Calm Calm - N/A   Mostly Cloudy
2:15 AM 62.6 °F - 60.8 °F 94% 30.01 in 10.0 mi Calm Calm - N/A   Overcast
2:35 AM 62.6 °F - 60.8 °F 94% 30.00 in 10.0 mi Calm Calm - N/A   Overcast
2:55 AM 60.8 °F - 60.8 °F 100% 30.00 in 10.0 mi Calm Calm - N/A   Overcast
3:15 AM 60.8 °F - 59.0 °F 94% 30.00 in 10.0 mi Calm Calm - N/A   Mostly Cloudy
3:35 AM 60.8 °F - 59.0 °F 94% 30.00 in 10.0 mi Calm Calm - N/A   Mostly Cloudy
3:55 AM 60.8 °F - 59.0 °F 94% 30.01 in 10.0 mi Calm Calm - N/A   Scattered Clouds
4:15 AM 60.8 °F - 60.8 °F 100% 30.02 in 10.0 mi Calm Calm - N/A   Mostly Cloudy
4:35 AM 62.6 °F - 60.8 °F 94% 30.02 in 10.0 mi Calm Calm - N/A   Overcast
4:55 AM 62.6 °F - 60.8 °F 94% 30.03 in 10.0 mi Calm Calm - N/A   Overcast
5:15 AM 62.6 °F - 60.8 °F 94% 30.04 in 10.0 mi Calm Calm - N/A   Overcast
5:35 AM 62.6 °F - 60.8 °F 94% 30.04 in 10.0 mi Calm Calm - N/A   Overcast
5:55 AM 62.6 °F - 60.8 °F 94% 30.05 in 10.0 mi Calm Calm - N/A   Mostly Cloudy
6:15 AM 60.8 °F - 59.0 °F 94% 30.06 in 10.0 mi Calm Calm - N/A   Mostly Cloudy
6:35 AM 60.8 °F - 57.2 °F 88% 30.06 in 8.0 mi Calm Calm - N/A   Scattered Clouds
6:55 AM 59.0 °F - 57.2 °F 94% 30.06 in 6.0 mi Calm Calm - N/A   Scattered Clouds
7:15 AM 57.2 °F - 57.2 °F 100% 30.07 in 6.0 mi Calm Calm - N/A   Mostly Cloudy
7:35 AM 57.2 °F - 57.2 °F 100% 30.08 in 7.0 mi Calm Calm - N/A   Overcast
7:55 AM 59.0 °F - 59.0 °F 100% 30.08 in 9.0 mi Calm Calm - N/A   Partly Cloudy
8:15 AM 60.8 °F - 60.8 °F 100% 30.09 in 9.0 mi Calm Calm - N/A   Clear
8:35 AM 62.6 °F - 60.8 °F 94% 30.10 in 9.0 mi Calm Calm - N/A   Clear
8:55 AM 64.4 °F - 62.6 °F 94% 30.10 in 10.0 mi Calm Calm - N/A   Clear
9:15 AM 66.2 °F - 60.8 °F 83% 30.10 in 10.0 mi East 3.5 mph - N/A   Clear
9:35 AM 69.8 °F - 60.8 °F 73% 30.11 in 10.0 mi Calm Calm - N/A   Clear
9:55 AM 69.8 °F - 60.8 °F 73% 30.11 in 10.0 mi East 4.6 mph - N/A   Clear
10:15 AM 71.6 °F - 60.8 °F 69% 30.10 in 10.0 mi ESE 4.6 mph - N/A   Clear
10:35 AM 71.6 °F - 59.0 °F 64% 30.10 in 10.0 mi SE 9.2 mph - N/A   Clear
10:55 AM 73.4 °F - 59.0 °F 61% 30.10 in 10.0 mi East 5.8 mph - N/A   Clear
11:15 AM 73.4 °F - 60.8 °F 65% 30.11 in 10.0 mi SE 8.1 mph - N/A   Scattered Clouds
11:35 AM 73.4 °F - 59.0 °F 61% 30.11 in 10.0 mi ESE 6.9 mph - N/A   Scattered Clouds
11:55 AM 73.4 °F - 60.8 °F 65% 30.11 in 10.0 mi SSE 6.9 mph - N/A   Partly Cloudy
12:15 PM 75.2 °F - 60.8 °F 61% 30.10 in 10.0 mi SE 6.9 mph - N/A   Partly Cloudy
12:35 PM 75.2 °F - 59.0 °F 57% 30.09 in 10.0 mi SE 5.8 mph - N/A   Clear
12:55 PM 75.2 °F - 60.8 °F 61% 30.09 in 10.0 mi Calm Calm - N/A   Clear
1:15 PM 77.0 °F - 60.8 °F 57% 30.08 in 10.0 mi East 3.5 mph - N/A   Clear
1:35 PM 78.8 °F - 59.0 °F 51% 30.07 in 10.0 mi NNE 3.5 mph - N/A   Clear
1:55 PM 77.0 °F - 57.2 °F 50% 30.06 in 4.0 mi Calm Calm - N/A   Haze
2:15 PM 78.8 °F - 59.0 °F 51% 30.05 in 6.0 mi South 5.8 mph - N/A   Haze
2:35 PM 80.6 °F 81.1 °F 59.0 °F 48% 30.04 in 9.0 mi South 4.6 mph - N/A   Clear
2:55 PM 78.8 °F - 57.2 °F 47% 30.03 in 0.8 mi Calm Calm - N/A   Haze
3:15 PM 80.6 °F 80.8 °F 57.2 °F 45% 30.02 in 9.0 mi Calm Calm - N/A   Clear
3:35 PM 80.6 °F 80.8 °F 57.2 °F 45% 30.02 in 0.8 mi Calm Calm - N/A   Haze
3:55 PM 80.6 °F 80.8 °F 57.2 °F 45% 30.01 in 10.0 mi NE 3.5 mph - N/A   Partly Cloudy
4:15 PM 80.6 °F 80.8 °F 57.2 °F 45% 30.01 in 6.0 mi Calm Calm - N/A   Haze
4:35 PM 80.6 °F 80.8 °F 57.2 °F 45% 30.00 in 10.0 mi Calm Calm - N/A   Partly Cloudy
4:55 PM 80.6 °F 80.8 °F 57.2 °F 45% 30.00 in 10.0 mi Calm Calm - N/A   Partly Cloudy
5:15 PM 80.6 °F 80.8 °F 57.2 °F 45% 29.99 in 10.0 mi Calm Calm - N/A   Partly Cloudy
5:35 PM 80.6 °F 80.8 °F 57.2 °F 45% 29.99 in 10.0 mi Calm Calm - N/A   Scattered Clouds
5:55 PM 82.4 °F 81.7 °F 55.4 °F 39% 29.99 in 4.0 mi Calm Calm - N/A   Haze
6:15 PM 80.6 °F 80.5 °F 55.4 °F 42% 29.98 in 10.0 mi Calm Calm - N/A   Scattered Clouds
6:55 PM 78.8 °F - 57.2 °F 47% 29.98 in 10.0 mi Calm Calm - N/A   Clear
7:15 PM 77.0 °F - 59.0 °F 54% 29.98 in 10.0 mi Calm Calm - N/A   Clear
7:35 PM 75.2 °F - 59.0 °F 57% 29.98 in 10.0 mi Calm Calm - N/A   Clear
7:55 PM 73.4 °F - 60.8 °F 65% 29.98 in 10.0 mi Calm Calm - N/A   Clear
8:15 PM 71.6 °F - 60.8 °F 69% 29.98 in 10.0 mi Calm Calm - N/A   Clear
8:35 PM 68.0 °F - 60.8 °F 78% 29.99 in 10.0 mi Calm Calm - N/A   Clear
8:55 PM 66.2 °F - 60.8 °F 83% 30.00 in 10.0 mi Calm Calm - N/A   Clear
9:15 PM 66.2 °F - 60.8 °F 83% 30.01 in 10.0 mi Calm Calm - N/A   Clear
9:55 PM 68.0 °F - 60.8 °F 78% 30.03 in 10.0 mi Calm Calm - N/A   Partly Cloudy
10:15 PM 66.2 °F - 60.8 °F 83% 30.03 in 10.0 mi Calm Calm - N/A   Partly Cloudy
10:35 PM 66.2 °F - 60.8 °F 83% 30.03 in 10.0 mi ENE 3.5 mph - N/A   Partly Cloudy
10:55 PM 66.2 °F - 59.0 °F 78% 30.03 in 10.0 mi Calm Calm - N/A   Clear
11:15 PM 68.0 °F - 57.2 °F 68% 30.03 in 10.0 mi East 3.5 mph - N/A   Clear
11:35 PM 68.0 °F - 57.2 °F 68% 30.04 in 10.0 mi ESE 3.5 mph - N/A   Clear
11:55 PM 66.2 °F - 59.0 °F 78% 30.04 in 10.0 mi SE 4.6 mph - N/A   Clear